Terug naar catalogus

NOAA 16 DEB

ActiefPO
NORAD 41352·DEBRIS·🇺🇸 United States

Gelanceerd Sep 21, 2000 vanaf Vandenberg Space Force Base

Loading…

Volgende Passages (komende 24 uur)

TLE

VersSource: Space-Track

Epoch: Sep 13, 2026, 08:18 UTC

1 41352U 00055HV  26256.34595943  .00004346  00000-0  97160-3 0  9991
2 41352  98.9393 110.8964 0031968 119.2705 241.1693 14.56993828556006

Volg NOAA 16 DEB in realtime met AllMySat

Download on the App Store